This demonstration page uses our WeatherBlox Daily Observations layout. Learn more.

Left ArrowRight Arrow

44.31136, -96.79839

Hourly Observations for August 20, 2022

Temp ( °F °C ) Dew Point ( °F °C ) Humidity (%) Winds ( mph kmh ) Pressure ( in mb ) Visibility ( mi km ) Precip ( " mm )
12:52 am 00:52 Mostly Cloudy with Haze 59 15 N/A N/A N 5 7 29.91 1013 6 10 0.00 0.00
12:56 am 00:56 Mostly Cloudy 59 15 N/A N/A N 5 7 29.96 1015 7 11 0.00 0.00
1:13 am 01:13 Mostly Cloudy with Haze 59 15 N/A N/A N 5 7 29.92 1013 6 10 0.00 0.00
1:38 am 01:38 Partly Cloudy 61 16 N/A N/A N 3 6 29.91 1013 9 14 0.00 0.00
1:56 am 01:56 Clear 59 15 N/A N/A NNW 5 7 29.97 1015 8 13 0.00 0.00
2:41 am 02:41 Mostly Cloudy 61 16 N/A N/A N 5 7 29.92 1013 9 14 0.00 0.00
2:56 am 02:56 Cloudy 60 15.6 N/A N/A N 6 9 29.99 1016 9 14 0.00 0.00
3:56 am 03:56 Cloudy 60 15.6 N/A N/A N 6 9 30.00 1016 9 14 0.00 0.00
4:31 am 04:31 Hazy 59 15 N/A N/A N 5 7 29.96 1015 6 10 0.00 0.00
4:56 am 04:56 Hazy 58 14.4 N/A N/A NNW 5 7 30.01 1016 4 6 0.00 0.00
5:56 am 05:56 Hazy 57 13.9 N/A N/A NNW 6 9 30.02 1017 5 8 0.00 0.00
6:54 am 06:54 Partly Cloudy with Mist and Fog 57 14 N/A N/A N 8 13 29.99 1016 1 2 0.00 0.00
6:56 am 06:56 Mostly Cloudy with Mist and Fog 58 14.4 N/A N/A N 8 13 30.04 1017 1 1 0.00 0.00
7:07 am 07:07 Mostly Cloudy with Fog 57 14 N/A N/A NNW 8 13 29.99 1016 0 0 0.00 0.00
7:33 am 07:33 Cloudy with Mist and Fog 59 15 N/A N/A N 6 9 30.01 1016 1 1 0.00 0.00
7:40 am 07:40 Cloudy with Mist and Fog 59 15 N/A N/A N 7 11 30.01 1016 1 2 0.00 0.00
7:56 am 07:56 Cloudy with Mist and Fog 59 15 N/A N/A N 6 9 30.07 1018 1 2 0.00 0.00
8:04 am 08:04 Cloudy with Fog 59 15 N/A N/A N 7 11 30.02 1017 1 1 0.00 0.00
8:21 am 08:21 Cloudy with Mist and Fog 61 16 61 16 100 100 N 7 11 30.01 1016 2 3 0.00 0.00
8:29 am 08:29 Cloudy 61 16 61 16 100 100 N 6 9 30.01 1016 7 11 0.00 0.00
8:46 am 08:46 Cloudy with Mist and Fog 61 16 61 16 100 100 NNW 10 17 30.02 1017 2 3 0.00 0.00
8:56 am 08:56 Cloudy with Mist and Fog 60 15.6 60 15.6 100 100 N 8 13 30.09 1019 1 2 0.00 0.00
9:09 am 09:09 Cloudy with Fog 61 16 61 16 100 100 NNW 7 11 30.03 1017 1 1 0.00 0.00
9:21 am 09:21 Cloudy with Fog 61 16 61 16 100 100 NNW 7 11 30.03 1017 0 0 0.00 0.00
9:28 am 09:28 Cloudy with Fog 61 16 61 16 100 100 NNW 7 11 30.03 1017 1 1 0.00 0.00
9:43 am 09:43 Cloudy with Mist and Fog 63 17 63 17 100 100 NNW 7 11 30.03 1017 2 3 0.00 0.00
9:48 am 09:48 Cloudy with Mist and Fog 63 17 63 17 100 100 NNW 8 13 30.03 1017 3 5 0.00 0.00
9:56 am 09:56 Cloudy 65 18.3 64 17.8 97 97 N 7 11 30.09 1019 7 11 0.00 0.00
10:14 am 10:14 Mostly Cloudy 66 19 66 19 100 100 N 7 11 30.01 1016 10 16 0.00 0.00
10:25 am 10:25 Partly Cloudy 68 20 66 19 94 94 N 8 13 30.01 1016 10 16 0.00 0.00
10:33 am 10:33 Mostly Cloudy 70 21 66 19 88 88 N 10 17 30.00 1016 10 16 0.00 0.00
10:56 am 10:56 Mostly Cloudy 69 20.6 66 18.9 90 90 N 10 17 30.09 1019 10 16 0.00 0.00
11:29 am 11:29 Mostly Cloudy 70 21 66 19 88 88 NNE 12 19 30.01 1016 10 16 0.00 0.00
11:56 am 11:56 Partly Cloudy 74 23.3 62 16.7 66 66 NNE 10 17 30.09 1019 10 16 0.00 0.00
12:10 pm 12:10 Mostly Cloudy 72 22 63 17 73 73 N 10 17 30.01 1016 10 16 0.00 0.00
12:33 pm 12:33 Mostly Cloudy 75 24 61 16 61 61 N 10 17 30.00 1016 10 16 0.00 0.00
12:42 pm 12:42 Mostly Cloudy 73 23 63 17 69 69 N 8 13 30.00 1016 10 16 0.00 0.00
12:56 pm 12:56 Mostly Cloudy 76 24.4 61 16.1 60 60 NNE 10 17 30.09 1019 10 16 0.00 0.00
1:56 pm 13:56 Sunny 78 25.6 61 16.1 56 56 NE 10 17 30.09 1019 10 16 0.00 0.00
2:56 pm 14:56 Partly Cloudy 76 24.4 61 16.1 60 60 NE 10 17 30.09 1019 10 16 0.00 0.00
3:56 pm 15:56 Partly Cloudy 76 24.4 62 16.7 62 62 NE 10 17 30.08 1019 10 16 0.00 0.00
4:56 pm 16:56 Mostly Cloudy 76 24.4 62 16.7 62 62 NE 12 19 30.09 1019 10 16 0.00 0.00
5:07 pm 17:07 Mostly Sunny 77 25 63 17 61 61 NE 12 19 29.98 1015 10 16 0.00 0.00
5:56 pm 17:56 Sunny 78 25.6 62 16.7 58 58 NNE 8 13 30.08 1019 10 16 0.00 0.00
6:56 pm 18:56 Sunny 77 25 62 16.7 60 60 NE 5 7 30.08 1019 10 16 0.00 0.00
7:56 pm 19:56 Sunny 71 21.7 63 17.2 76 76 NE 5 7 30.09 1019 10 16 0.00 0.00
8:56 pm 20:56 Clear 66 18.9 64 17.8 93 93 Calm 30.11 1020 10 16 0.00 0.00
9:56 pm 21:56 Clear 65 18.3 64 17.8 97 97 NNE 5 7 30.12 1020 10 16 0.00 0.00
10:56 pm 22:56 Clear 62 16.7 62 16.7 100 100 Calm 30.13 1020 10 16 0.00 0.00
11:56 pm 23:56 Clear with Mist and Fog 60 15.6 59 15 96 96 Calm 30.14 1021 5 8 0.00 0.00

Powered by AerisWeather